Check out our new BloomSky Weather System.

Active alerts


No alerts


Thunder radar  blitzortung!


Rain radar more information rain snow radar


Visit our other weather sites:

Template documentation
and downloads

And another site



Weather Underground History page Text

Daily Summary for April 10, 2017 Units:  Metric    English   Both
« Previous Day
Next Day »
Daily Weekly Monthly Yearly Custom
  High: Low: Average:
Temperature: 27.3 °C 22.5 °C 23.8 °C
Dew Point: 23.7 °C 19.2 °C 21.2 °C
Humidity: 89 % 74 % 85 %
Wind Speed: 17.7 km/h 0 km/h 6.9 km/h
Wind Gust: 30.6 km/h - -
Wind:- - SE
Pressure: 1017.8 hPa 1013.8 hPa -
Precipitation: 0.25 mm    
Historical Graphs
 
 
Tabular Data for April 10, 2017
Time Temperature Dew Point Pressure Wind Wind Speed Wind Gust Humidity Rainfall Rate (Hourly)
00:01 22.7 °C 19.3 °C 1014.8 hPa East 9.7 km/h 19.3 km/h 81 % 0 mm
00:06 22.7 °C 19.3 °C 1014.8 hPa East 9.7 km/h 16.1 km/h 81 % 0 mm
00:11 22.7 °C 19.3 °C 1014.8 hPa WSW 1.6 km/h 12.9 km/h 81 % 0 mm
00:16 22.7 °C 19.3 °C 1014.8 hPa SE 8 km/h 11.3 km/h 81 % 0 mm
00:21 22.6 °C 19.2 °C 1014.8 hPa SE 1.6 km/h 16.1 km/h 81 % 0 mm
00:26 22.6 °C 19.4 °C 1014.8 hPa East 12.9 km/h 16.1 km/h 82 % 0 mm
00:31 22.6 °C 19.4 °C 1014.4 hPa South 14.5 km/h 16.1 km/h 82 % 0 mm
00:36 22.7 °C 19.5 °C 1014.8 hPa SSE 4.8 km/h 16.1 km/h 82 % 0 mm
00:41 22.6 °C 19.4 °C 1014.8 hPa SE 6.4 km/h 16.1 km/h 82 % 0 mm
00:46 22.6 °C 19.4 °C 1014.4 hPa SE 8 km/h 14.5 km/h 82 % 0 mm
00:51 22.6 °C 19.4 °C 1014.4 hPa SE 6.4 km/h 16.1 km/h 82 % 0 mm
00:56 22.6 °C 19.4 °C 1014.8 hPa SSE 11.3 km/h 16.1 km/h 82 % 0 mm
01:01 22.6 °C 19.4 °C 1014.8 hPa South 6.4 km/h 16.1 km/h 82 % 0 mm
01:06 22.6 °C 19.4 °C 1014.8 hPa SE 14.5 km/h 16.1 km/h 82 % 0 mm
01:11 22.6 °C 19.4 °C 1014.8 hPa SSE 6.4 km/h 17.7 km/h 82 % 0 mm
01:16 22.6 °C 19.6 °C 1014.8 hPa SE 9.7 km/h 17.7 km/h 83 % 0 mm
01:21 22.6 °C 19.6 °C 1014.4 hPa ESE 11.3 km/h 17.7 km/h 83 % 0 mm
01:26 22.6 °C 19.6 °C 1014.4 hPa East 8 km/h 14.5 km/h 83 % 0 mm
01:31 22.6 °C 19.6 °C 1014.4 hPa SE 12.9 km/h 12.9 km/h 83 % 0 mm
01:36 22.6 °C 19.6 °C 1014.4 hPa South 11.3 km/h 16.1 km/h 83 % 0 mm
01:41 22.6 °C 19.6 °C 1014.4 hPa South 6.4 km/h 16.1 km/h 83 % 0 mm
01:46 22.6 °C 19.6 °C 1014.1 hPa South 3.2 km/h 16.1 km/h 83 % 0 mm
01:51 22.6 °C 19.6 °C 1014.4 hPa SSE 9.7 km/h 16.1 km/h 83 % 0 mm
01:56 22.6 °C 19.6 °C 1014.4 hPa SSE 3.2 km/h 12.9 km/h 83 % 0 mm
02:02 22.6 °C 19.6 °C 1014.1 hPa SSE 3.2 km/h 12.9 km/h 83 % 0 mm
02:07 22.6 °C 19.8 °C 1014.4 hPa SE 1.6 km/h 14.5 km/h 84 % 0 mm
02:09 22.6 °C 19.8 °C 1014.1 hPa SSE 6.4 km/h 14.5 km/h 84 % 0 mm
02:14 22.5 °C 19.7 °C 1014.1 hPa SSW 6.4 km/h 14.5 km/h 84 % 0 mm
02:19 22.5 °C 19.7 °C 1014.1 hPa SSE 6.4 km/h 14.5 km/h 84 % 0 mm
02:24 22.5 °C 19.7 °C 1014.1 hPa SSE 3.2 km/h 12.9 km/h 84 % 0 mm
02:29 22.5 °C 19.7 °C 1014.1 hPa SSE 4.8 km/h 12.9 km/h 84 % 0 mm
02:34 22.5 °C 19.7 °C 1014.1 hPa SE 4.8 km/h 12.9 km/h 84 % 0 mm
02:39 22.5 °C 19.7 °C 1013.8 hPa ESE 4.8 km/h 16.1 km/h 84 % 0 mm
02:44 22.5 °C 19.9 °C 1013.8 hPa SE 8 km/h 16.1 km/h 85 % 0 mm
02:49 22.5 °C 19.9 °C 1013.8 hPa SE 8 km/h 16.1 km/h 85 % 0 mm
02:54 22.5 °C 19.9 °C 1013.8 hPa SSE 4.8 km/h 12.9 km/h 85 % 0 mm
02:59 22.5 °C 19.9 °C 1013.8 hPa SE 4.8 km/h 11.3 km/h 85 % 0 mm
03:04 22.5 °C 19.9 °C 1013.8 hPa East 6.4 km/h 12.9 km/h 85 % 0 mm
03:09 22.5 °C 19.9 °C 1013.8 hPa East 8 km/h 12.9 km/h 85 % 0 mm
03:14 22.5 °C 20 °C 1013.8 hPa SE 9.7 km/h 12.9 km/h 86 % 0 mm
03:19 22.5 °C 20 °C 1013.8 hPa SE 3.2 km/h 12.9 km/h 86 % 0 mm
03:24 22.5 °C 20 °C 1013.8 hPa SSE 3.2 km/h 12.9 km/h 86 % 0 mm
03:29 22.5 °C 20 °C 1013.8 hPa SSE 1.6 km/h 12.9 km/h 86 % 0 mm
03:34 22.5 °C 20 °C 1013.8 hPa ESE 6.4 km/h 12.9 km/h 86 % 0 mm
03:39 22.5 °C 20 °C 1014.1 hPa South 4.8 km/h 12.9 km/h 86 % 0 mm
03:44 22.6 °C 20.1 °C 1013.8 hPa ESE 11.3 km/h 12.9 km/h 86 % 0 mm
03:49 22.6 °C 20.1 °C 1013.8 hPa SSE 6.4 km/h 12.9 km/h 86 % 0 mm
03:54 22.6 °C 20.1 °C 1013.8 hPa SE 4.8 km/h 12.9 km/h 86 % 0 mm
03:59 22.6 °C 20.1 °C 1013.8 hPa East 4.8 km/h 12.9 km/h 86 % 0 mm
04:04 22.6 °C 20.1 °C 1013.8 hPa SSE 3.2 km/h 12.9 km/h 86 % 0 mm
04:09 22.6 °C 20.1 °C 1013.8 hPa ESE 6.4 km/h 12.9 km/h 86 % 0 mm
04:14 22.6 °C 20.3 °C 1013.8 hPa ESE 1.6 km/h 11.3 km/h 87 % 0 mm
04:19 22.6 °C 20.3 °C 1013.8 hPa SE 6.4 km/h 11.3 km/h 87 % 0 mm
04:24 22.6 °C 20.3 °C 1013.8 hPa South 4.8 km/h 11.3 km/h 87 % 0 mm
04:29 22.6 °C 20.3 °C 1013.8 hPa SSE 8 km/h 11.3 km/h 87 % 0 mm
04:34 22.6 °C 20.3 °C 1013.8 hPa SE 8 km/h 12.9 km/h 87 % 0 mm
04:39 22.6 °C 20.3 °C 1013.8 hPa SE 6.4 km/h 12.9 km/h 87 % 0 mm
04:44 22.7 °C 20.4 °C 1013.8 hPa South 8 km/h 12.9 km/h 87 % 0 mm
04:49 22.7 °C 20.4 °C 1013.8 hPa ESE 8 km/h 12.9 km/h 87 % 0 mm
04:54 22.7 °C 20.4 °C 1013.8 hPa SE 4.8 km/h 12.9 km/h 87 % 0 mm
04:59 22.7 °C 20.4 °C 1013.8 hPa SSE 4.8 km/h 12.9 km/h 87 % 0 mm
05:04 22.7 °C 20.4 °C 1013.8 hPa SSE 6.4 km/h 14.5 km/h 87 % 0 mm
05:09 22.7 °C 20.6 °C 1013.8 hPa SE 8 km/h 14.5 km/h 88 % 0 mm
05:14 22.6 °C 20.5 °C 1013.8 hPa SSW 8 km/h 14.5 km/h 88 % 0 mm
05:19 22.6 °C 20.5 °C 1013.8 hPa SSE 11.3 km/h 12.9 km/h 88 % 0 mm
05:24 22.6 °C 20.5 °C 1013.8 hPa SE 4.8 km/h 12.9 km/h 88 % 0 mm
05:26 22.6 °C 20.5 °C 1013.8 hPa SSE 4.8 km/h 14.5 km/h 88 % 0 mm
05:31 22.6 °C 20.5 °C 1013.8 hPa ESE 8 km/h 14.5 km/h 88 % 0 mm
05:36 22.6 °C 20.5 °C 1013.8 hPa SSE 4.8 km/h 16.1 km/h 88 % 0 mm
05:41 22.6 °C 20.5 °C 1013.8 hPa South 6.4 km/h 17.7 km/h 88 % 0 mm
05:46 22.7 °C 20.6 °C 1013.8 hPa ESE 3.2 km/h 17.7 km/h 88 % 0 mm
05:51 22.7 °C 20.6 °C 1013.8 hPa South 9.7 km/h 17.7 km/h 88 % 0 mm
05:56 22.6 °C 20.5 °C 1013.8 hPa SE 4.8 km/h 12.9 km/h 88 % 0 mm
06:01 22.6 °C 20.5 °C 1013.8 hPa SSE 3.2 km/h 12.9 km/h 88 % 0 mm
06:06 22.7 °C 20.6 °C 1014.1 hPa SE 6.4 km/h 12.9 km/h 88 % 0 mm
06:11 22.7 °C 20.6 °C 1014.1 hPa SSE 3.2 km/h 16.1 km/h 88 % 0 mm
06:16 22.7 °C 20.6 °C 1014.1 hPa South 8 km/h 16.1 km/h 88 % 0 mm
06:21 22.7 °C 20.6 °C 1014.1 hPa SSE 4.8 km/h 16.1 km/h 88 % 0 mm
06:26 22.7 °C 20.6 °C 1014.4 hPa SSE 3.2 km/h 14.5 km/h 88 % 0 mm
06:27 22.7 °C 20.6 °C 1014.4 hPa SSE 8 km/h 14.5 km/h 88 % 0 mm
06:32 22.7 °C 20.6 °C 1014.4 hPa SSW 4.8 km/h 12.9 km/h 88 % 0 mm
06:37 22.7 °C 20.6 °C 1014.4 hPa SSW 3.2 km/h 12.9 km/h 88 % 0 mm
06:42 22.7 °C 20.6 °C 1014.4 hPa SE 4.8 km/h 12.9 km/h 88 % 0 mm
06:47 22.7 °C 20.8 °C 1014.4 hPa SE 11.3 km/h 12.9 km/h 89 % 0 mm
06:52 22.7 °C 20.8 °C 1014.4 hPa SE 4.8 km/h 16.1 km/h 89 % 0 mm
06:57 22.8 °C 20.9 °C 1014.4 hPa ESE 1.6 km/h 16.1 km/h 89 % 0 mm
07:02 22.8 °C 20.9 °C 1014.4 hPa SE 8 km/h 16.1 km/h 89 % 0 mm
07:07 22.8 °C 20.9 °C 1014.4 hPa SSE 6.4 km/h 12.9 km/h 89 % 0 mm
07:12 22.9 °C 21 °C 1014.4 hPa ESE 4.8 km/h 12.9 km/h 89 % 0 mm
07:17 22.9 °C 20.8 °C 1014.4 hPa SE 8 km/h 12.9 km/h 88 % 0 mm
07:22 22.9 °C 20.8 °C 1014.4 hPa SE 8 km/h 12.9 km/h 88 % 0 mm
07:27 22.9 °C 20.8 °C 1014.4 hPa SSE 6.4 km/h 12.9 km/h 88 % 0 mm
07:32 22.9 °C 20.8 °C 1014.8 hPa SSE 4.8 km/h 12.9 km/h 88 % 0 mm
07:37 23 °C 20.9 °C 1014.8 hPa SSE 1.6 km/h 12.9 km/h 88 % 0 mm
07:42 23.1 °C 21 °C 1014.8 hPa SSE 3.2 km/h 12.9 km/h 88 % 0 mm
07:47 23.1 °C 21 °C 1014.8 hPa SSE 6.4 km/h 11.3 km/h 88 % 0 mm
07:52 23.1 °C 21 °C 1015.1 hPa SSE 9.7 km/h 12.9 km/h 88 % 0 mm
07:57 23.1 °C 21.2 °C 1015.1 hPa South 8 km/h 12.9 km/h 89 % 0 mm
08:02 23.1 °C 21.2 °C 1015.1 hPa SE 8 km/h 12.9 km/h 89 % 0 mm
08:07 23.1 °C 21.2 °C 1015.1 hPa SSE 6.4 km/h 12.9 km/h 89 % 0 mm
08:12 23.1 °C 21.2 °C 1015.5 hPa SE 11.3 km/h 12.9 km/h 89 % 0 mm
08:17 23.1 °C 21.2 °C 1015.5 hPa South 8 km/h 12.9 km/h 89 % 0 mm
08:22 23.2 °C 21.3 °C 1015.5 hPa SSE 11.3 km/h 12.9 km/h 89 % 0 mm
08:27 23.2 °C 21.3 °C 1015.5 hPa East 8 km/h 12.9 km/h 89 % 0 mm
08:32 23.2 °C 21.3 °C 1015.5 hPa SE 4.8 km/h 12.9 km/h 89 % 0 mm
08:37 23.2 °C 21.3 °C 1015.8 hPa SSE 4.8 km/h 12.9 km/h 89 % 0 mm
08:42 23.2 °C 21.3 °C 1015.8 hPa SE 4.8 km/h 12.9 km/h 89 % 0 mm
08:48 23.3 °C 21.4 °C 1015.8 hPa SE 6.4 km/h 14.5 km/h 89 % 0 mm
08:53 23.4 °C 21.5 °C 1015.8 hPa SSE 6.4 km/h 14.5 km/h 89 % 0 mm
08:58 23.4 °C 21.3 °C 1015.8 hPa WSW 9.7 km/h 14.5 km/h 88 % 0 mm
09:02 23.5 °C 21.4 °C 1015.8 hPa SE 3.2 km/h 14.5 km/h 88 % 0 mm
09:08 23.6 °C 21.5 °C 1015.8 hPa SE 3.2 km/h 14.5 km/h 88 % 0 mm
09:13 23.7 °C 21.6 °C 1015.8 hPa ESE 6.4 km/h 14.5 km/h 88 % 0 mm
09:18 23.7 °C 21.4 °C 1016.1 hPa South 6.4 km/h 14.5 km/h 87 % 0 mm
09:23 23.7 °C 21.4 °C 1016.1 hPa SE 6.4 km/h 16.1 km/h 87 % 0 mm
09:28 23.8 °C 21.5 °C 1016.1 hPa SSE 9.7 km/h 16.1 km/h 87 % 0 mm
09:33 23.8 °C 21.5 °C 1016.1 hPa ESE 8 km/h 16.1 km/h 87 % 0 mm
09:38 23.9 °C 21.6 °C 1016.1 hPa SE 9.7 km/h 16.1 km/h 87 % 0 mm
09:43 23.9 °C 21.6 °C 1016.1 hPa SSE 4.8 km/h 17.7 km/h 87 % 0 mm
09:48 24 °C 21.5 °C 1016.1 hPa SE 9.7 km/h 17.7 km/h 86 % 0 mm
09:53 24.1 °C 21.6 °C 1016.1 hPa SE 6.4 km/h 17.7 km/h 86 % 0 mm
09:58 24.2 °C 21.7 °C 1016.5 hPa SE 8 km/h 17.7 km/h 86 % 0 mm
10:03 24.3 °C 21.8 °C 1016.5 hPa South 11.3 km/h 19.3 km/h 86 % 0 mm
10:08 24.3 °C 21.6 °C 1016.5 hPa SE 9.7 km/h 19.3 km/h 85 % 0 mm
10:13 24.4 °C 21.7 °C 1016.5 hPa ESE 8 km/h 19.3 km/h 85 % 0 mm
10:18 24.5 °C 21.8 °C 1016.8 hPa ESE 6.4 km/h 16.1 km/h 85 % 0 mm
10:23 24.6 °C 21.9 °C 1016.8 hPa East 6.4 km/h 14.5 km/h 85 % 0 mm
10:28 24.6 °C 21.7 °C 1016.8 hPa ESE 8 km/h 12.9 km/h 84 % 0 mm
10:34 24.7 °C 22 °C 1016.8 hPa SE 14.5 km/h 16.1 km/h 85 % 0 mm
10:39 24.8 °C 21.9 °C 1016.8 hPa SE 6.4 km/h 16.1 km/h 84 % 0 mm
10:44 24.9 °C 21.8 °C 1016.8 hPa SSE 9.7 km/h 17.7 km/h 83 % 0 mm
10:49 24.9 °C 21.8 °C 1016.8 hPa SSW 12.9 km/h 19.3 km/h 83 % 0 mm
10:54 25 °C 21.9 °C 1016.8 hPa SE 6.4 km/h 22.5 km/h 83 % 0 mm
10:59 25.2 °C 22.1 °C 1017.2 hPa SSE 14.5 km/h 22.5 km/h 83 % 0 mm
11:04 25.4 °C 21.9 °C 1017.2 hPa SE 6.4 km/h 22.5 km/h 81 % 0 mm
11:09 25.6 °C 22.1 °C 1017.2 hPa ESE 6.4 km/h 17.7 km/h 81 % 0 mm
11:14 25.8 °C 22.3 °C 1017.2 hPa SE 6.4 km/h 17.7 km/h 81 % 0 mm
11:19 25.7 °C 22 °C 1017.2 hPa SE 12.9 km/h 17.7 km/h 80 % 0 mm
11:24 25.6 °C 22.1 °C 1017.2 hPa SE 14.5 km/h 16.1 km/h 81 % 0 mm
11:29 25.6 °C 21.9 °C 1017.2 hPa ESE 6.4 km/h 19.3 km/h 80 % 0 mm
11:34 25.6 °C 22.1 °C 1017.2 hPa South 4.8 km/h 19.3 km/h 81 % 0 mm
11:35 25.6 °C 22.1 °C 1017.5 hPa South 4.8 km/h 19.3 km/h 81 % 0 mm
11:40 25.4 °C 21.9 °C 1017.5 hPa SSE 8 km/h 19.3 km/h 81 % 0 mm
11:45 25.6 °C 22.3 °C 1017.5 hPa ESE 9.7 km/h 17.7 km/h 82 % 0 mm
11:50 26 °C 22.7 °C 1017.5 hPa ESE 4.8 km/h 17.7 km/h 82 % 0 mm
11:55 26.3 °C 22.6 °C 1017.2 hPa SE 6.4 km/h 17.7 km/h 80 % 0 mm
12:00 26.4 °C 22.5 °C 1017.2 hPa SE 3.2 km/h 14.5 km/h 79 % 0 mm
12:05 26.3 °C 22.2 °C 1017.5 hPa South 3.2 km/h 16.1 km/h 78 % 0 mm
12:10 26.4 °C 22.3 °C 1017.5 hPa South 6.4 km/h 16.1 km/h 78 % 0 mm
12:15 26.4 °C 22.3 °C 1017.5 hPa ENE 12.9 km/h 19.3 km/h 78 % 0 mm
12:20 26.3 °C 22.2 °C 1017.2 hPa SE 9.7 km/h 19.3 km/h 78 % 0 mm
12:25 26.4 °C 22.5 °C 1017.2 hPa SE 8 km/h 19.3 km/h 79 % 0 mm
12:30 26.5 °C 22.1 °C 1017.2 hPa SE 11.3 km/h 16.1 km/h 77 % 0 mm
12:35 26.5 °C 22.1 °C 1017.2 hPa SE 4.8 km/h 16.1 km/h 77 % 0 mm
12:40 26.6 °C 22 °C 1017.2 hPa ESE 4.8 km/h 16.1 km/h 76 % 0 mm
12:45 26.8 °C 22.4 °C 1017.2 hPa SE 12.9 km/h 14.5 km/h 77 % 0 mm
12:50 27 °C 22.4 °C 1016.8 hPa SE 9.7 km/h 17.7 km/h 76 % 0 mm
12:55 27.2 °C 22.4 °C 1016.8 hPa SE 3.2 km/h 17.7 km/h 75 % 0 mm
13:00 27.3 °C 22.3 °C 1016.8 hPa ESE 9.7 km/h 17.7 km/h 74 % 0 mm
13:05 27.2 °C 22.4 °C 1016.8 hPa SSE 11.3 km/h 17.7 km/h 75 % 0 mm
13:10 27.2 °C 22.4 °C 1016.8 hPa South 3.2 km/h 17.7 km/h 75 % 0 mm
13:15 26.9 °C 22.3 °C 1016.8 hPa SSE 11.3 km/h 16.1 km/h 76 % 0 mm
13:20 26.6 °C 22.4 °C 1016.8 hPa SE 9.7 km/h 19.3 km/h 78 % 0 mm
13:25 26 °C 22.7 °C 1017.2 hPa ESE 4.8 km/h 19.3 km/h 82 % 0 mm
13:30 25.7 °C 23 °C 1016.8 hPa ESE 3.2 km/h 19.3 km/h 85 % 0 mm
13:35 25.6 °C 23.1 °C 1016.8 hPa SSE 4.8 km/h 17.7 km/h 86 % 0 mm
13:40 25.7 °C 23.2 °C 1016.8 hPa Calm   9.7 km/h 86 % 0 mm
13:45 26 °C 23.7 °C 1016.8 hPa Calm   8 km/h 87 % 0 mm
13:50 25.9 °C 23.2 °C 1016.8 hPa ESE 3.2 km/h 8 km/h 85 % 0 mm
13:55 26.1 °C 23.6 °C 1016.5 hPa East 6.4 km/h 8 km/h 86 % 0 mm
14:00 25.9 °C 23 °C 1016.5 hPa SE 1.6 km/h 9.7 km/h 84 % 0 mm
14:05 25.7 °C 23.2 °C 1016.5 hPa ESE 3.2 km/h 9.7 km/h 86 % 0.25 mm
14:10 25.6 °C 23.5 °C 1016.5 hPa Calm   9.7 km/h 88 % 0.25 mm
14:15 25.6 °C 23.5 °C 1016.5 hPa NE 1.6 km/h 6.4 km/h 88 % 0.25 mm
14:20 25.5 °C 23.4 °C 1016.5 hPa ENE 1.6 km/h 3.2 km/h 88 % 0.25 mm
14:25 25.7 °C 23.6 °C 1016.5 hPa Calm   6.4 km/h 88 % 0.25 mm
14:30 25.6 °C 23.5 °C 1016.5 hPa SE 1.6 km/h 9.7 km/h 88 % 0.25 mm
14:35 25.5 °C 23.2 °C 1016.1 hPa SE 4.8 km/h 14.5 km/h 87 % 0.25 mm
14:40 25.6 °C 23.5 °C 1016.1 hPa SE 4.8 km/h 14.5 km/h 88 % 0.25 mm
14:45 25.6 °C 23.3 °C 1016.1 hPa East 6.4 km/h 14.5 km/h 87 % 0.25 mm
14:50 25.7 °C 23.4 °C 1016.1 hPa ESE 8 km/h 11.3 km/h 87 % 0.25 mm
14:55 25.6 °C 23.1 °C 1015.8 hPa East 6.4 km/h 17.7 km/h 86 % 0.25 mm
15:00 25.3 °C 22.8 °C 1016.1 hPa South 4.8 km/h 19.3 km/h 86 % 0.25 mm
15:06 25.1 °C 22.8 °C 1016.1 hPa SE 8 km/h 19.3 km/h 87 % 0 mm
15:11 24.9 °C 22.8 °C 1015.8 hPa ESE 3.2 km/h 19.3 km/h 88 % 0 mm
15:16 24.9 °C 22.8 °C 1015.8 hPa ESE 3.2 km/h 16.1 km/h 88 % 0 mm
15:21 25 °C 22.9 °C 1015.8 hPa East 3.2 km/h 14.5 km/h 88 % 0 mm
15:26 25.1 °C 23 °C 1015.5 hPa SE 6.4 km/h 14.5 km/h 88 % 0 mm
15:31 25.3 °C 23 °C 1015.5 hPa SE 6.4 km/h 14.5 km/h 87 % 0 mm
15:36 25.4 °C 23.1 °C 1015.8 hPa ESE 6.4 km/h 19.3 km/h 87 % 0 mm
15:41 25.4 °C 22.9 °C 1015.8 hPa SE 9.7 km/h 19.3 km/h 86 % 0 mm
15:46 25.6 °C 23.1 °C 1015.5 hPa NE 9.7 km/h 19.3 km/h 86 % 0 mm
15:51 25.6 °C 23.1 °C 1015.5 hPa ENE 6.4 km/h 19.3 km/h 86 % 0 mm
15:56 25.7 °C 22.8 °C 1015.5 hPa ESE 17.7 km/h 20.9 km/h 84 % 0 mm
16:01 25.4 °C 22.5 °C 1015.8 hPa East 6.4 km/h 25.7 km/h 84 % 0 mm
16:06 25.3 °C 22.4 °C 1015.5 hPa SE 4.8 km/h 25.7 km/h 84 % 0 mm
16:11 25.3 °C 22.4 °C 1015.5 hPa NE 4.8 km/h 25.7 km/h 84 % 0 mm
16:16 25.2 °C 22.3 °C 1015.5 hPa ESE 8 km/h 19.3 km/h 84 % 0 mm
16:21 25.2 °C 22.3 °C 1015.5 hPa SE 4.8 km/h 19.3 km/h 84 % 0 mm
16:26 25.2 °C 22.3 °C 1015.5 hPa SE 3.2 km/h 19.3 km/h 84 % 0 mm
16:31 25.1 °C 22.4 °C 1015.5 hPa SE 9.7 km/h 19.3 km/h 85 % 0 mm
16:36 25.2 °C 22.5 °C 1015.5 hPa SE 6.4 km/h 17.7 km/h 85 % 0 mm
16:41 25.2 °C 22.3 °C 1015.5 hPa SE 4.8 km/h 20.9 km/h 84 % 0 mm
16:46 25.1 °C 22.2 °C 1015.5 hPa ESE 12.9 km/h 24.1 km/h 84 % 0 mm
16:51 25 °C 22.1 °C 1015.5 hPa ESE 9.7 km/h 24.1 km/h 84 % 0 mm
16:56 24.9 °C 22 °C 1015.5 hPa ESE 17.7 km/h 24.1 km/h 84 % 0 mm
17:01 24.9 °C 22.2 °C 1015.5 hPa SSE 6.4 km/h 20.9 km/h 85 % 0 mm
17:06 24.9 °C 22.2 °C 1015.5 hPa SSE 11.3 km/h 19.3 km/h 85 % 0 mm
17:11 24.8 °C 22.1 °C 1015.5 hPa SE 9.7 km/h 19.3 km/h 85 % 0 mm
17:16 24.8 °C 22.1 °C 1015.5 hPa SE 6.4 km/h 17.7 km/h 85 % 0 mm
17:21 24.8 °C 21.9 °C 1015.5 hPa East 9.7 km/h 17.7 km/h 84 % 0 mm
17:26 24.9 °C 22 °C 1015.5 hPa East 12.9 km/h 19.3 km/h 84 % 0 mm
17:31 24.9 °C 22 °C 1015.1 hPa SE 6.4 km/h 19.3 km/h 84 % 0 mm
17:36 24.8 °C 21.9 °C 1015.1 hPa ESE 11.3 km/h 20.9 km/h 84 % 0 mm
17:41 24.8 °C 21.9 °C 1015.1 hPa ESE 6.4 km/h 24.1 km/h 84 % 0 mm
17:46 24.8 °C 21.9 °C 1015.1 hPa ESE 3.2 km/h 24.1 km/h 84 % 0 mm
17:51 24.7 °C 21.8 °C 1015.1 hPa East 3.2 km/h 24.1 km/h 84 % 0 mm
17:56 24.7 °C 21.8 °C 1015.1 hPa SSE 3.2 km/h 17.7 km/h 84 % 0 mm
18:01 24.8 °C 21.9 °C 1014.8 hPa SE 9.7 km/h 17.7 km/h 84 % 0 mm
18:06 24.7 °C 21.8 °C 1014.8 hPa East 9.7 km/h 19.3 km/h 84 % 0 mm
18:07 24.7 °C 21.8 °C 1014.8 hPa SE 8 km/h 19.3 km/h 84 % 0 mm
18:12 24.6 °C 21.7 °C 1014.8 hPa East 9.7 km/h 25.7 km/h 84 % 0 mm
18:17 24.6 °C 21.9 °C 1014.8 hPa SSE 8 km/h 25.7 km/h 85 % 0 mm
18:22 24.5 °C 21.6 °C 1014.4 hPa SE 6.4 km/h 25.7 km/h 84 % 0 mm
18:27 24.4 °C 21.7 °C 1014.8 hPa SSE 11.3 km/h 30.6 km/h 85 % 0 mm
18:32 24.3 °C 21.6 °C 1014.8 hPa East 9.7 km/h 30.6 km/h 85 % 0 mm
18:37 24.2 °C 21.5 °C 1014.8 hPa South 9.7 km/h 30.6 km/h 85 % 0 mm
18:42 24.2 °C 21.5 °C 1014.8 hPa South 16.1 km/h 20.9 km/h 85 % 0 mm
18:47 24.2 °C 21.5 °C 1014.4 hPa SE 14.5 km/h 22.5 km/h 85 % 0 mm
18:52 24.2 °C 21.5 °C 1014.8 hPa SSE 16.1 km/h 24.1 km/h 85 % 0 mm
18:57 24.1 °C 21.4 °C 1014.8 hPa SSE 6.4 km/h 24.1 km/h 85 % 0 mm
19:02 24.1 °C 21.4 °C 1015.1 hPa SE 8 km/h 24.1 km/h 85 % 0 mm
19:07 24.1 °C 21.4 °C 1015.5 hPa SE 8 km/h 17.7 km/h 85 % 0 mm
19:12 24.1 °C 21.4 °C 1015.5 hPa ESE 8 km/h 19.3 km/h 85 % 0 mm
19:17 24.1 °C 21.4 °C 1015.5 hPa SE 11.3 km/h 19.3 km/h 85 % 0 mm
19:22 24.1 °C 21.4 °C 1015.8 hPa SSE 8 km/h 19.3 km/h 85 % 0 mm
19:27 24.1 °C 21.4 °C 1015.8 hPa SE 4.8 km/h 20.9 km/h 85 % 0 mm
19:32 24 °C 21.3 °C 1016.1 hPa East 9.7 km/h 20.9 km/h 85 % 0 mm
19:37 24 °C 21.3 °C 1016.1 hPa SE 4.8 km/h 20.9 km/h 85 % 0 mm
19:42 23.9 °C 21 °C 1016.1 hPa SSE 9.7 km/h 17.7 km/h 84 % 0 mm
19:47 23.9 °C 21.2 °C 1016.5 hPa SSE 4.8 km/h 17.7 km/h 85 % 0 mm
19:52 23.9 °C 21.2 °C 1016.5 hPa East 4.8 km/h 17.7 km/h 85 % 0 mm
19:57 23.9 °C 21.2 °C 1016.5 hPa East 9.7 km/h 16.1 km/h 85 % 0 mm
20:02 23.8 °C 21.1 °C 1016.5 hPa SSE 4.8 km/h 16.1 km/h 85 % 0 mm
20:07 23.8 °C 21.1 °C 1016.5 hPa SE 4.8 km/h 16.1 km/h 85 % 0 mm
20:12 23.8 °C 21.1 °C 1016.5 hPa ENE 6.4 km/h 16.1 km/h 85 % 0 mm
20:17 23.7 °C 21.2 °C 1016.5 hPa South 6.4 km/h 17.7 km/h 86 % 0 mm
20:22 23.6 °C 21.1 °C 1016.5 hPa ENE 8 km/h 17.7 km/h 86 % 0 mm
20:27 23.5 °C 21 °C 1016.5 hPa NW 3.2 km/h 17.7 km/h 86 % 0 mm
20:32 23.5 °C 21 °C 1016.5 hPa East 1.6 km/h 14.5 km/h 86 % 0 mm
20:37 23.4 °C 20.9 °C 1016.5 hPa SSW 3.2 km/h 14.5 km/h 86 % 0 mm
20:42 23.3 °C 21 °C 1016.5 hPa SE 8 km/h 16.1 km/h 87 % 0 mm
20:47 23.2 °C 20.9 °C 1016.1 hPa East 6.4 km/h 16.1 km/h 87 % 0 mm
20:52 23.1 °C 21 °C 1016.1 hPa SE 4.8 km/h 22.5 km/h 88 % 0 mm
20:57 23 °C 20.9 °C 1016.1 hPa SSE 4.8 km/h 22.5 km/h 88 % 0 mm
20:58 23 °C 20.9 °C 1016.1 hPa ESE 4.8 km/h 22.5 km/h 88 % 0 mm
21:03 22.9 °C 20.8 °C 1016.5 hPa ESE 6.4 km/h 22.5 km/h 88 % 0 mm
21:08 22.9 °C 20.8 °C 1016.1 hPa SE 8 km/h 17.7 km/h 88 % 0 mm
21:13 22.9 °C 20.8 °C 1016.1 hPa East 6.4 km/h 17.7 km/h 88 % 0 mm
21:18 22.9 °C 20.8 °C 1016.5 hPa East 9.7 km/h 17.7 km/h 88 % 0 mm
21:19 22.9 °C 20.8 °C 1016.1 hPa ENE 6.4 km/h 17.7 km/h 88 % 0 mm
21:24 23 °C 20.7 °C 1016.5 hPa South 3.2 km/h 20.9 km/h 87 % 0 mm
21:29 23 °C 20.7 °C 1016.8 hPa SE 6.4 km/h 20.9 km/h 87 % 0 mm
21:34 23 °C 20.7 °C 1016.8 hPa SSE 8 km/h 20.9 km/h 87 % 0 mm
21:39 22.9 °C 20.6 °C 1016.8 hPa SE 4.8 km/h 17.7 km/h 87 % 0 mm
21:44 22.9 °C 20.6 °C 1016.8 hPa ESE 6.4 km/h 19.3 km/h 87 % 0 mm
21:49 22.9 °C 20.6 °C 1016.8 hPa SE 9.7 km/h 19.3 km/h 87 % 0 mm
21:54 22.9 °C 20.6 °C 1017.2 hPa ESE 8 km/h 19.3 km/h 87 % 0 mm
21:59 22.9 °C 20.6 °C 1017.2 hPa ESE 9.7 km/h 17.7 km/h 87 % 0 mm
22:04 22.8 °C 20.5 °C 1017.2 hPa East 9.7 km/h 17.7 km/h 87 % 0 mm
22:09 22.8 °C 20.5 °C 1017.5 hPa ESE 4.8 km/h 16.1 km/h 87 % 0 mm
22:14 22.8 °C 20.5 °C 1017.8 hPa ESE 8 km/h 16.1 km/h 87 % 0 mm
22:19 22.8 °C 20.5 °C 1017.8 hPa SE 3.2 km/h 16.1 km/h 87 % 0 mm
22:24 22.8 °C 20.5 °C 1017.8 hPa SSE 3.2 km/h 16.1 km/h 87 % 0 mm
22:30 22.7 °C 20.4 °C 1017.8 hPa ESE 9.7 km/h 16.1 km/h 87 % 0 mm
22:35 22.7 °C 20.4 °C 1017.8 hPa SSE 4.8 km/h 16.1 km/h 87 % 0 mm
22:40 22.7 °C 20.4 °C 1017.8 hPa ESE 1.6 km/h 16.1 km/h 87 % 0 mm
22:45 22.7 °C 20.4 °C 1017.8 hPa SE 8 km/h 16.1 km/h 87 % 0 mm
22:50 22.7 °C 20.4 °C 1017.8 hPa ESE 8 km/h 16.1 km/h 87 % 0 mm
22:55 22.7 °C 20.4 °C 1017.8 hPa SE 11.3 km/h 14.5 km/h 87 % 0 mm
23:00 22.7 °C 20.4 °C 1017.8 hPa SE 4.8 km/h 17.7 km/h 87 % 0 mm
23:05 22.7 °C 20.2 °C 1017.8 hPa SE 9.7 km/h 17.7 km/h 86 % 0 mm
23:10 22.7 °C 20.2 °C 1017.8 hPa SE 4.8 km/h 19.3 km/h 86 % 0 mm
23:15 22.6 °C 20.3 °C 1017.5 hPa SE 8 km/h 19.3 km/h 87 % 0 mm
23:20 22.6 °C 20.3 °C 1017.5 hPa SSE 8 km/h 19.3 km/h 87 % 0 mm
23:25 22.6 °C 20.3 °C 1017.8 hPa SSE 6.4 km/h 20.9 km/h 87 % 0 mm
23:30 22.6 °C 20.3 °C 1017.8 hPa SE 8 km/h 20.9 km/h 87 % 0 mm
23:35 22.6 °C 20.3 °C 1017.8 hPa SE 4.8 km/h 20.9 km/h 87 % 0 mm
23:40 22.6 °C 20.3 °C 1017.8 hPa SSE 11.3 km/h 19.3 km/h 87 % 0 mm
23:45 22.6 °C 20.3 °C 1017.8 hPa East 6.4 km/h 17.7 km/h 87 % 0 mm
23:50 22.6 °C 20.3 °C 1017.8 hPa SE 6.4 km/h 17.7 km/h 87 % 0 mm
23:55 22.6 °C 20.3 °C 1017.8 hPa ESE 12.9 km/h 19.3 km/h 87 % 0 mm
Spring, Texas: Villages of Bridgestone
Compliments of Weather Underground - 2.75 mb

Script developed by  Jim McMurry - jmcmurry@mwt.net Adapted for the template by  Wim van der Kuil - Leuven-Template.eu

You find our weather info also at:

UK Metoffice

WeatherCloud

Weather Underground

Mid-South Weather Network

AWEKAS

Citizen Weather Observer Program (CWOP)

HAMweather, WeatherForYou, PWS Weather

Equipment we use:

Weather-station
Davis Vantage Vue

Weather-program
Meteohub

Weather-server
Debian 7.9 x86 (Guest)

Provider
DreamHost

Davis Vantage Vue

Meteohub

Debian 7.9 x86 (Guest)

DreamHost